Regional Weather Roundup
Issued by NWS Burlington, VT

Home | Current Version | Previous Version | Text Only | Print | Product List | Glossary On
Versions: 1 2 3 4 5 6 7 8 9 10 11 12 13 14 15 16 17 18 19 20 21 22 23 24 25 26 27 28 29 30 31 32 33 34 35 36 37 38 39 40 41 42 43 44 45 46 47 48 49 50
047
ASUS41 KBTV 112010
RWRBTV
VERMONT REGIONAL WEATHER ROUNDUP
NATIONAL WEATHER SERVICE BURLINGTON VT
300 PM EST THU FEB 11 2016

NOTE: "FAIR" INDICATES FEW OR NO CLOUDS BELOW 12,000 FEET WITH NO
SIGNIFICANT WEATHER AND/OR OBSTRUCTIONS TO VISIBILITY.

* THESE REPORTS ARE NOT UNDER NWS QUALITY CONTROL AND/OR DO NOT
  REPORT WEATHER SUCH AS PRECIPITATION AND FOG.

VTZ001>019-112100-
_____VERMONT_____


CITY           SKY/WX    TMP DP  RH WIND       PRES   REMARKS
BURLINGTON     PTSUNNY   15  -2  46 NW21      29.82R WCI  -2
MONTPELIER     CLOUDY    12   0  58 NW16G24   29.73R WCI  -5
MORRISVILLE    CLOUDY    13   2  61 N13       29.77R HAZE    WCI  -2
ST. JOHNSBURY*   N/A     18   2  49 MISG      29.69R
LYNDONVILLE*   PTSUNNY   12   2  63 W13G20    29.69R WCI  -3
RUTLAND*       CLOUDY    18   1  49 W17G24    29.73R WCI   2
SPRINGFIELD    FAIR      18  -5  36 W18G28    29.74R WCI   2
HIGHGATE*      PTSUNNY    8  -4  58 NW10G20   29.87R WCI  -6
NEWPORT*       CLOUDY     8  -2  63 NW13G20   29.75R WCI  -8
BENNINGTON     CLOUDY    14   1  56 W13G24    29.81R WCI   0

_____LAKE CHAMPLAIN_____


CITY           SKY/WX    TMP DP  RH WIND       PRES   REMARKS

$$

NYZ007-026>031-035-052-083-112100-
_____NORTHERN NEW YORK_____


CITY           SKY/WX    TMP DP  RH WIND       PRES   REMARKS
PLATTSBURGH    SUNNY     12  -5  46 NW15G23   29.85R WCI  -4
SARANAC LAKE   CLOUDY     2  -9  60 W10G21    29.73R WCI -14
MASSENA        MIX PCPN   2 -10  57 W17       29.97R WCI -18
OGDENSBURG*    CLOUDY     7  -4  61 NW13      29.97R HAZE    WCI  -9
WATERTOWN      SNOW       6  -1  73 NW13      29.99R VSB 1/2 WCI -10
ALBANY         PTSUNNY   17  -4  39 W26G43    29.89R WCI  -2
GLENS FALLS    CLOUDY    17  -4  39 W10G23    29.83R WCI   5

$$
NHZ002-005-011-112100-
_____NEW HAMPSHIRE_____


CITY           SKY/WX    TMP DP  RH WIND       PRES   REMARKS
LEBANON        FLURRIES  20   6  55 W12       29.71R WCI   8
MT WASHINGTON  FOG       -6  -6 100 W30         N/A  VSB 1/16WCI -34
PLYMOUTH       LGT SNOW  21  12  70 W9G18     29.68R WCI  10
WHITEFIELD     CLOUDY    17   5  59 N13       29.65R WCI   4

$$

_____REGIONAL QUEBEC LOCATIONS_____


CITY           SKY/WX    TMP DP  RH WIND       PRES   REMARKS
MONTREAL       CLOUDY     5  -6  61 W24G31    29.89R WCI -17
QUEBEC CITY    LGT SNOW  10   3  72 SW17G25   29.70R WCI  -7
SHERBROOKE     LGT SNOW   9   3  78 W13G18    29.72R WCI  -7

_____REGIONAL ONTARIO LOCATIONS_____


CITY           SKY/WX    TMP DP  RH WIND       PRES   REMARKS
OTTAWA         FLURRIES   0 -11  60 W20G25    29.96R WCI -22

______KEY______
VSB  - VISIBILITY IN MILES
WCI  - WIND CHILL INDEX
HX   - HEAT INDEX
$$
NNNN




USA.gov is the U.S. government's official web portal to all federal, state and local government web resources and services.